Volver al catálogo

DELTA 1 DEB

ActivoSSO
NORAD 21326·DEBRIS·🇺🇸 United States

Lanzado Jun 12, 1975 desde Vandenberg Space Force Base

Loading…

Próximos Pases (próximas 24 horas)

TLE

ActualizadoSource: Space-Track

Época: Sep 14, 2026, 13:18 UTC

1 21326U 75052AU  26257.55478105  .00000097  00000-0  24933-3 0  9990
2 21326  99.8122 143.2779 0030059 194.7543 284.4134 13.41891672727969

Sigue DELTA 1 DEB en tiempo real con AllMySat

Download on the App Store